Погода в Досанге

Погода в Досанге : погода сейчас, прогноз погоды и архив. Всё, что Вы хотите узнать о погоде в Досанге!

Хотите узнать прогноз погоды в Досанге? Тогда Вам сюда: Погода в Досанге

Поиск расширенной информации на нашем сайте:

Другие новости

Новости СМИ2

Главная страница сайта

Новости сайта

03.07.2017

Напоминаем, что на нашем специализированном сайте Метеоцентр.Азия вы можете получить высокодетализированные автоматические прогнозы погоды по пунктам России, СНГ и мира в авиационном формате (включающие направление и скорость ветра, видимость, явления погоды, количество и форму облачности, нижнюю и верхнюю границу облачности).

Рекомендуем: Портал о строительстве http://fgupniikp.ru

Погода в Досанге - сегодня

Время (UTC), дата Ветер
(°,м/с) 
Видим.   Явления Облачность Т
(°С)
Тd
(°С)
f(%) Тe
(°С)
Pmin
(гПа)
dP
(гПа)
Po
(мм)
O2
(г/м3)
Тmin Tmax R s Состояние
почвы
15 19.07.17 150 (ЮВ) 6-12  20000 м    9/5 600 м кучево-дожд., верхняя 
[Cb cap|Ci sp]
+32.7 +4.1 17 +33  1008.6  -0.8  758  272    +35.7       
18 19.07.17 тихо () {12}  10 км    5/3 600 м верхняя 
[Sc diur, vesp|Ci fib]
+25.7 +8.5 34 +26  1009.8  0.1  759  278           
21 19.07.17 110 (В) 10 км    3/0 средняя, верхняя 
[Ac cast|Ci fib]
+22.5 +15.5 65 +32  1009.6  -0.2  759  279           
00 20.07.17 130 (ЮВ) 10 км    8/0 верхняя 
[Ci fib]
+21.4 +16.5 74 +32  1008.3  -1.3  758  280           
03 20.07.17 150 (ЮВ) 20000 м    10/3 600 м средняя, верхняя 
[Sc diur, vesp|Ac cast|Ci sp]
+25.8 +15.5 53 +35  1008  -0.3  758  276  +20.8        сухая 
06 20.07.17 170 (Ю) 4{10}  20000 м    6/0 средняя, верхняя 
[Ac trans|Ci sp]
+32.3 +11.9 29 +36  1008.2  0.1  758  271           
09 20.07.17 150 (ЮВ) 6-11{11}  20000 м    8/0 средняя, верхняя 
[Ac trans|Cc]
+36.3 +4.7 14 +36  1007.7  -0.6  757  269           
12 20.07.17 160 (Ю) 20000 м    8/1 120 м средняя 
[Cu med, cong|Ac cast]
+36.8 +8.2 18 +37  1006.5  -1.2  756  267          замёрзшая 
15 20.07.17 160 (Ю) 20000 м    8/6 600 м кучево-дожд., средняя, верхняя 
[Cb cap|Ac cast|Ci sp]
+32 +14.5 35 +40  1006.4  -0.1  756  270    +37.2       
18 20.07.17 110 (В) 10 км    10/0 средняя 
[Ac und]
+28.5 +17.3 51 +41  1007.3  0.9  757  272           
21 20.07.17 140 (ЮВ) 10 км    ясно 
+24.1 +19.3 75 +41  1007  -0.3  757  276           
00 21.07.17 060 (СВ) 10 км    6/0 верхняя 
[Ci sp]
+19.6 +18.3 92 +36  1006.6  -0.4  757  280           
03 21.07.17 тихо ()   20000 м    10/3 600 м средняя, верхняя 
[Cu med, cong|Ac cuf|Cc]
+22.8 +21 90 +43  1007.2  0.6  757  276  +18.9        сухая 
06 21.07.17 200 (Ю) 20000 м    10/5 600 м кучево-дожд., средняя 
[Cb cap|Ac cuf]
+26.4 +22.2 78 +50  1008.2  758  273           
09 21.07.17 220 (ЮЗ) 20000 м    8/0 средняя, верхняя 
[Ac cast|Cc]
+32.8 +18.5 43 +48  1008.5  0.2  758  268           
12 21.07.17 290 (З) 20000 м    9/0 средняя, верхняя 
[Ac cast|Cc]
+34.6 +13.5 28 +41  1008.5  758  268           
15 21.07.17 300 (СЗ) 5{11}  20000 м    1/1 600 м 
[Sc diur, vesp]
+32.6 +11.1 27 +35  1008.9  0.5  758  271    +35.8       
18 21.07.17 300 (СЗ) 10 км  зарница  4/3 600 м кучево-дожд., средняя 
[Cb cap|Ac cuf]
+26.6 +17.8 59 +40  1010.4  1.5  759  275           
21 21.07.17 020 (С) 1{10}  4000 м  слаб. ливневой дождь{гроза}  10/10 600 м кучево-дожд. 
[Cb cap]
+23.2 +21.2 89 +44  1010.8  0.4  760  277           
00 22.07.17 310 (СЗ) 10 км  {гроза, ливн. осадки}  3/1 600 м верхняя 
[Sc diur, vesp|Ci fib]
+22.4 +18.6 79 +38  1010.9  0.1  760  279           
03 22.07.17 330 (СЗ) 20000 м    ясно 
+23 +17.1 69 +35  1012.1  1.2  761  279  +21.5      влажная 
06 22.07.17 360 (С) 20000 м    ясно 
+29.5 +15.2 42 +38  1012.7  0.6  761  274           
09 22.07.17 350 (С) 20000 м    ясно 
+33.7 +12.4 28 +38  1012.2  -0.6  761  271           
12 22.07.17 020 (С) 20000 м    1/1 600 м 
[Cu hum]
+35.6 +10.8 22 +38  1010.8  -1.4  760  269           
15 22.07.17 010 (С) 20000 м    3/0 верхняя 
[Ci sp]
+35.3 +9.8 21 +36  1009.9  -0.9  759  269    +36       
Время (UTC), дата Ветер
(°,м/с) 
Видим.   Явления Облачность Т
(°С)
Тd
(°С)
f(%) Тe
(°С)
Pmin
(гПа)
dP
(гПа)
Po
(мм)
O2
(г/м3)
Тmin Tmax R s Состояние
почвы

Для получения пояснительной информации подведите курсор к названию столбца.

ПОГОДА в Досанге - архив

Всё, что Вы хотите узнать о погоде в Досанге - удобно и подробно!

Выберите нужную дату (начиная с 1 января 2015* года) и нажмите кнопку "Найти".
Будут отображены архивные сводки погоды по пункту Досанг, начиная с указанной даты.


Отображать данные в формате CSV (для использования в таблицах Excel)


Внимание! Наш архив погоды предназначен исключительно для личного некоммерческого использования в познавательных целях. Если Вам необходимы официальные справки о состоянии погоды (для производственных, юридических, коммерческих и т.п. целей), обращайтесь в органы Росгидромета.

*Примечание: данная дата относится к архиву по метеостанциям СССР (Россия, СНГ, Балтия).
Архив по метеостанциям Зарубежной Европы и Азии (кроме Китая) хранится 10 дней, по другим регионам земного шара (Китай, Африка, Америка, Австралия, Океания) - 1 день.

Досанг - район местоположения метеостанции


Название, широта, долгота, высота метеостанции:
Досанг 46.9°ш. 47.9°д. -19 м над ур. моря [Российская Федерация]

Дополнительная информация

В oтличие oт бoльшинства пoгoдных сайтoв мы публикуем пoдрoбную метеoинфoрмацию в детальнoм прoфессиoнальнoм фoрмате.

Характеристики температуры и влажнoсти вoздуха измеряются на высoте 2 м в тени вдали oт зданий и деревьев.
Скoрoсть ветра измеряется на высoте 10 м (на урoвне рoста челoвека скoрoсть ветра ниже в 1.5-2 раза). Если метеoстанция нахoдится в гoрoде или в лесу, тo скoрoсть ветра занижена на 2-4 м/с пo сравнению с oткрытым местoм. Скoрoсть ветра над акватoриями крупных рек и oзёр, а также на вершинах хoлмoв на 2-5 м/с выше, чем в oбычных услoвиях.
Атмoсфернoе давление в разных тoчках местнoсти мoжет значительнo oтличаться oт давления на метеoстанции, в зависимoсти oт услoвий рельефа (при пoдъёме на 10 м давление пoнижается примернo на 1 мм рт.ст.).